Previsão horária em Ali Sabieh

Hoje, 27 Janeiro, Quarta-feira

Tempo Temperatura Precipitação Vento Pressão Humidade
00:00 +17°C° 0 mm 5 m/s 699 mmHg 79%
01:00 +16°C° 0 mm 5 m/s 699 mmHg 82%
02:00 +17°C° 0 mm 4 m/s 698 mmHg 84%
03:00 +17°C° 0 mm 4 m/s 698 mmHg 87%
04:00 +17°C° 0 mm 4 m/s 698 mmHg 88%
05:00 +15°C° 0 mm 4 m/s 698 mmHg 88%
06:00 +15°C° 0 mm 4 m/s 699 mmHg 89%
07:00 +16°C° 0 mm 5 m/s 699 mmHg 81%
08:00 +19°C° 0 mm 5 m/s 700 mmHg 73%
09:00 +20°C° 0 mm 6 m/s 700 mmHg 65%
10:00 +22°C° 0 mm 7 m/s 700 mmHg 54%
11:00 +24°C° 0 mm 7 m/s 700 mmHg 44%
12:00 +27°C° 0 mm 8 m/s 700 mmHg 33%
13:00 +28°C° 0 mm 8 m/s 700 mmHg 31%
14:00 +28°C° 0 mm 9 m/s 699 mmHg 28%
15:00 +29°C° 0 mm 9 m/s 698 mmHg 26%
16:00 +27°C° 0 mm 9 m/s 698 mmHg 32%
17:00 +24°C° 0 mm 9 m/s 698 mmHg 39%
18:00 +23°C° 0 mm 9 m/s 698 mmHg 45%
19:00 +22°C° 0 mm 8 m/s 698 mmHg 52%
20:00 +21°C° 0 mm 8 m/s 699 mmHg 59%
21:00 +18°C° 0 mm 7 m/s 699 mmHg 67%
22:00 +18°C° 0 mm 7 m/s 699 mmHg 72%
23:00 +18°C° 0 mm 7 m/s 699 mmHg 78%

Amanhã, 28 Janeiro, Quinta-feira

Tempo Temperatura Precipitação Vento Pressão Humidade
00:00 +17°C° 0 mm 7 m/s 699 mmHg 84%
01:00 +17°C° 0 mm 7 m/s 698 mmHg 85%
02:00 +16°C° 0 mm 7 m/s 698 mmHg 87%
03:00 +16°C° 0 mm 6 m/s 698 mmHg 89%
04:00 +16°C° 0 mm 6 m/s 698 mmHg 88%
05:00 +16°C° 0 mm 6 m/s 698 mmHg 88%
06:00 +16°C° 0 mm 6 m/s 698 mmHg 88%
07:00 +17°C° 0 mm 7 m/s 699 mmHg 81%
08:00 +18°C° 0 mm 8 m/s 700 mmHg 74%
09:00 +20°C° 0 mm 8 m/s 700 mmHg 67%
10:00 +22°C° 0 mm 8 m/s 700 mmHg 60%
11:00 +24°C° 0 mm 8 m/s 700 mmHg 52%
12:00 +27°C° 0 mm 8 m/s 700 mmHg 44%
13:00 +27°C° 0 mm 9 m/s 699 mmHg 41%
14:00 +28°C° 0 mm 9 m/s 699 mmHg 38%
15:00 +28°C° 0 mm 9 m/s 698 mmHg 36%
16:00 +27°C° 0 mm 9 m/s 698 mmHg 40%
17:00 +24°C° 0 mm 9 m/s 698 mmHg 45%
18:00 +23°C° 0 mm 9 m/s 698 mmHg 49%
19:00 +22°C° 0 mm 9 m/s 698 mmHg 58%
20:00 +20°C° 0 mm 8 m/s 699 mmHg 67%
21:00 +18°C° 0 mm 8 m/s 699 mmHg 76%
22:00 +18°C° 0 mm 7 m/s 699 mmHg 80%
23:00 +18°C° 0 mm 7 m/s 699 mmHg 84%

Depois de amanhã, 29 Janeiro, Sexta-feira

Tempo Temperatura Precipitação Vento Pressão Humidade
00:00 +17°C° 0 mm 7 m/s 699 mmHg 88%
01:00 +17°C° 0 mm 7 m/s 698 mmHg 89%
02:00 +17°C° 0 mm 6 m/s 698 mmHg 90%
03:00 +16°C° 0 mm 6 m/s 697 mmHg 91%
04:00 +16°C° 0 mm 6 m/s 698 mmHg 90%
05:00 +16°C° 0 mm 6 m/s 698 mmHg 90%
06:00 +16°C° 0 mm 6 m/s 698 mmHg 89%
07:00 +17°C° 0 mm 6 m/s 699 mmHg 81%
08:00 +20°C° 0 mm 6 m/s 700 mmHg 73%
09:00 +21°C° 0 mm 7 m/s 700 mmHg 66%
10:00 +23°C° 0 mm 7 m/s 700 mmHg 56%
11:00 +26°C° 0 mm 7 m/s 700 mmHg 47%
12:00 +28°C° 0 mm 7 m/s 700 mmHg 38%
13:00 +28°C° 0 mm 7 m/s 700 mmHg 37%
14:00 +29°C° 0 mm 7 m/s 699 mmHg 36%
15:00 +29°C° 0 mm 7 m/s 698 mmHg 35%
16:00 +27°C° 0 mm 7 m/s 698 mmHg 43%
17:00 +26°C° 0 mm 7 m/s 698 mmHg 52%
18:00 +23°C° 0 mm 7 m/s 698 mmHg 60%
19:00 +22°C° 0 mm 7 m/s 698 mmHg 68%
20:00 +21°C° 0 mm 6 m/s 698 mmHg 76%
21:00 +20°C° 0 mm 6 m/s 699 mmHg 84%
22:00 +19°C° 0 mm 6 m/s 699 mmHg 84%
23:00 +19°C° 0 mm 6 m/s 698 mmHg 85%

30 Janeiro, Sábado

Tempo Temperatura Precipitação Vento Pressão Humidade
00:00 +19°C° 0 mm 6 m/s 698 mmHg 85%
01:00 +19°C° 0 mm 5 m/s 698 mmHg 86%
02:00 +17°C° 0 mm 5 m/s 698 mmHg 88%
03:00 +18°C° 0 mm 4 m/s 697 mmHg 89%
04:00 +18°C° 0 mm 4 m/s 698 mmHg 89%
05:00 +17°C° 0 mm 3 m/s 698 mmHg 89%
06:00 +17°C° 0 mm 3 m/s 698 mmHg 90%
07:00 +18°C° 0 mm 3 m/s 699 mmHg 80%
08:00 +20°C° 0 mm 4 m/s 700 mmHg 70%
09:00 +21°C° 0 mm 4 m/s 700 mmHg 60%
10:00 +23°C° 0 mm 4 m/s 700 mmHg 51%
11:00 +26°C° 0 mm 4 m/s 700 mmHg 42%
12:00 +27°C° 0 mm 3 m/s 700 mmHg 34%
13:00 +28°C° 0 mm 4 m/s 699 mmHg 31%
14:00 +29°C° 0 mm 4 m/s 699 mmHg 29%
15:00 +30°C° 0 mm 4 m/s 698 mmHg 26%
16:00 +29°C° 0 mm 5 m/s 698 mmHg 33%
17:00 +27°C° 0 mm 5 m/s 698 mmHg 41%
18:00 +26°C° 0 mm 5 m/s 698 mmHg 48%
19:00 +23°C° 0 mm 5 m/s 698 mmHg 54%
20:00 +22°C° 0 mm 4 m/s 698 mmHg 61%
21:00 +21°C° 0 mm 4 m/s 699 mmHg 68%
22:00 +20°C° 0 mm 3 m/s 698 mmHg 72%
23:00 +19°C° 0 mm 3 m/s 698 mmHg 75%

31 Janeiro, Domingo

Tempo Temperatura Precipitação Vento Pressão Humidade
00:00 +19°C° 0 mm 3 m/s 698 mmHg 78%
01:00 +18°C° 0 mm 2 m/s 698 mmHg 82%
02:00 +18°C° 0 mm 2 m/s 697 mmHg 85%
03:00 +18°C° 0 mm 1 m/s 697 mmHg 89%
04:00 +18°C° 0 mm 1 m/s 697 mmHg 89%
05:00 +18°C° 0 mm 1 m/s 698 mmHg 90%
06:00 +16°C° 0 mm 1 m/s 698 mmHg 91%
07:00 +19°C° 0 mm 1 m/s 698 mmHg 83%
08:00 +20°C° 0 mm 1 m/s 699 mmHg 76%
09:00 +20°C° 0 mm 2 m/s 700 mmHg 69%
10:00 +23°C° 0 mm 2 m/s 700 mmHg 60%
11:00 +25°C° 0 mm 2 m/s 700 mmHg 51%
12:00 +27°C° 0 mm 2 m/s 700 mmHg 43%
13:00 +28°C° 0 mm 3 m/s 699 mmHg 40%
14:00 +29°C° 0 mm 4 m/s 699 mmHg 37%
15:00 +30°C° 0 mm 4 m/s 698 mmHg 34%
16:00 +28°C° 0 mm 5 m/s 698 mmHg 41%
17:00 +27°C° 0 mm 5 m/s 698 mmHg 49%
18:00 +24°C° 0 mm 6 m/s 697 mmHg 57%
19:00 +23°C° 0 mm 6 m/s 698 mmHg 63%
20:00 +22°C° 0 mm 5 m/s 698 mmHg 68%
21:00 +20°C° 0 mm 5 m/s 699 mmHg 74%
22:00 +20°C° 0 mm 5 m/s 699 mmHg 77%
23:00 +19°C° 0 mm 4 m/s 699 mmHg 80%

1 Fevereiro, Segunda-feira

Tempo Temperatura Precipitação Vento Pressão Humidade
00:00 +19°C° 0 mm 4 m/s 698 mmHg 83%
01:00 +18°C° 0 mm 4 m/s 698 mmHg 85%
02:00 +18°C° 0 mm 4 m/s 698 mmHg 87%
03:00 +18°C° 0 mm 4 m/s 698 mmHg 88%
04:00 +18°C° 0 mm 4 m/s 698 mmHg 87%
05:00 +17°C° 0 mm 5 m/s 698 mmHg 86%
06:00 +17°C° 0 mm 5 m/s 699 mmHg 84%
07:00 +19°C° 0 mm 6 m/s 699 mmHg 80%
08:00 +20°C° 0 mm 6 m/s 700 mmHg 75%
09:00 +21°C° 0 mm 7 m/s 701 mmHg 70%
10:00 +22°C° 0 mm 7 m/s 701 mmHg 61%
11:00 +24°C° 0 mm 7 m/s 701 mmHg 53%
12:00 +27°C° 0 mm 8 m/s 701 mmHg 44%
13:00 +27°C° 0 mm 8 m/s 700 mmHg 43%
14:00 +28°C° 0 mm 8 m/s 700 mmHg 41%
15:00 +28°C° 0 mm 9 m/s 699 mmHg 40%
16:00 +27°C° 0 mm 9 m/s 699 mmHg 45%
17:00 +26°C° 0 mm 8 m/s 699 mmHg 50%
18:00 +23°C° 0 mm 8 m/s 699 mmHg 55%
19:00 +22°C° 0 mm 8 m/s 699 mmHg 58%
20:00 +21°C° 0 mm 7 m/s 700 mmHg 61%
21:00 +20°C° 0 mm 7 m/s 700 mmHg 64%
22:00 +20°C° 0 mm 7 m/s 700 mmHg 67%
23:00 +18°C° 0 mm 7 m/s 700 mmHg 70%
Mostrar mais

Necessitamos do seu Consentimento

A Meteoprog e os seus Fornecedores de Serviços podem armazenar e aceder a dados pessoais como cookies, identificadores do dispositivo ou outras tecnologias semelhantes existentes no seu dispositivo e processar estes dados para personalizar conteúdos e anúncios, assim como funcionalidades nas redes sociais e análise de tráfego.

  • Armazenar e/ou aceder a informações no seu dispositivo

    Os cookies, identificadores do dispositivo ou outras informações podem ser armazenados ou acedidos no seu dispositivo, para os fins acima indicados.

  • Anúncios e conteúdos personalizados, medição de anúncios e conteúdos, dados sobre o público-alvo e desenvolvimento de produtos

    Os anúncios e os conteúdos podem ser personalizados com base num perfil. Podem ser adicionados dados adicionais para uma maior personalização dos anúncios e dos conteúdos. A eficácia dos anúncios e dos conteúdos pode ser medida. Podem ser obtidas informações sobre o público que visualizou os anúncios e os conteúdos. Estes dados podem ser usados para desenvolver ou melhorar sistemas, softwares ou a experiência do utilizador.

Ao clicar em "Eu concordo”, permitirá o uso de cookies, identificadores do dispositivo e web beacons mencionados ou outras tecnologias semelhantes. As configurações do navegador do seu dispositivo podem ser alteradas.

Para certos fins, podem ser invocados interesses legítimos ao invés de consentimento. Pode ler mais informação sobre este assunto na nossa Política de Privacidade e Cookies.